QPF
0.00 0.00 0.00 0.00 0.00 0.00 0.00 0.00 0.00 0.00 0.00 0.00 0.00 0.00 0.00 0.00 0.00 0.00 0.00 0.00 0.00 0.00 0.00 0.00 0.00 0.00 0.01 0.03 0.06 0.05 0.03 0.03 0.04 0.04 0.04 0.04 0.05 0.06 0.05 0.05 0.04 0.06 0.08 0.07
0.00 0.00 0.00 0.00 0.00 0.00 0.00 0.00 0.00 0.00 0.00 0.00 0.00 0.00 0.00 0.00 0.00 0.00 0.00 0.00 0.00 0.00 0.00 0.00 0.01 0.01 0.01 0.02 0.02 0.02 0.02 0.03 0.04 0.04 0.06 0.06 0.06 0.05 0.04 0.03 0.04 0.05 0.06 0.07
0.00 0.00 0.00 0.00 0.00 0.00 0.00 0.00 0.00 0.00 0.00 0.00 0.00 0.00 0.00 0.00 0.00 0.00 0.00 0.00 0.00 0.00 0.00 0.00 0.01 0.01 0.02 0.02 0.02 0.02 0.02 0.01 0.02 0.02 0.04 0.05 0.07 0.06 0.05 0.05 0.06 0.05 0.05 0.06
0.00 0.00 0.00 0.00 0.00 0.00 0.00 0.00 0.00 0.00 0.00 0.00 0.00 0.00 0.00 0.00 0.00 0.00 0.00 0.00 0.00 0.00 0.00 0.00 0.01 0.01 0.01 0.02 0.02 0.01 0.02 0.02 0.02 0.02 0.02 0.03 0.05 0.06 0.06 0.04 0.04 0.05 0.05 0.06
0.00 0.00 0.00 0.00 0.00 0.00 0.00 0.00 0.00 0.00 0.00 0.00 0.00 0.00 0.00 0.00 0.00 0.00 0.00 0.00 0.00 0.00 0.00 0.00 0.01 0.01 0.02 0.02 0.02 0.02 0.03 0.03 0.03 0.02 0.03 0.04 0.04 0.05 0.05 0.03 0.04 0.05 0.05 0.05
0.00 0.00 0.00 0.00 0.00 0.00 0.00 0.00 0.00 0.00 0.00 0.00 0.00 0.00 0.00 0.00 0.00 0.00 0.00 0.00 0.00 0.00 0.00 0.01 0.02 0.02 0.02 0.02 0.02 0.02 0.02 0.03 0.03 0.04 0.04 0.06 0.07 0.07 0.06 0.05 0.05 0.05 0.05 0.05
0.00 0.00 0.00 0.00 0.00 0.00 0.00 0.00 0.00 0.00 0.00 0.00 0.00 0.00 0.00 0.00 0.00 0.00 0.00 0.00 0.00 0.00 0.01 0.01 0.02 0.02 0.02 0.01 0.01 0.01 0.01 0.02 0.03 0.05 0.07 0.08 0.08 0.06 0.04 0.04 0.05 0.06 0.06 0.06
0.00 0.00 0.00 0.00 0.00 0.00 0.00 0.00 0.00 0.00 0.00 0.00 0.00 0.00 0.00 0.00 0.00 0.00 0.00 0.00 0.00 0.01 0.01 0.01 0.01 0.01 0.01 0.00 0.00 0.01 0.01 0.01 0.03 0.04 0.06 0.08 0.06 0.04 0.03 0.03 0.05 0.05 0.05 0.04
0.00 0.00 0.00 0.00 0.00 0.00 0.00 0.00 0.00 0.00 0.00 0.00 0.00 0.00 0.00 0.00 0.00 0.00 0.00 0.00 0.00 0.01 0.01 0.01 0.01 0.00 0.00 0.00 0.00 0.00 0.01 0.01 0.02 0.03 0.04 0.05 0.04 0.04 0.04 0.05 0.06 0.05 0.05 0.04
0.00 0.00 0.00 0.00 0.00 0.00 0.00 0.00 0.00 0.00 0.00 0.00 0.00 0.00 0.00 0.00 0.00 0.00 0.00 0.00 0.00 0.00 0.00 0.00 0.00 0.00 0.00 0.00 0.00 0.00 0.01 0.03 0.04 0.04 0.04 0.03 0.02 0.03 0.04 0.04 0.04 0.04 0.05 0.05
0.00 0.00 0.00 0.00 0.00 0.00 0.00 0.00 0.00 0.00 0.00 0.00 0.00 0.00 0.00 0.00 0.00 0.00 0.00 0.00 0.00 0.00 0.00 0.00 0.00 0.00 0.00 0.00 0.00 0.00 0.02 0.03 0.02 0.02 0.02 0.02 0.02 0.03 0.03 0.03 0.04 0.03 0.03 0.03
0.00 0.00 0.00 0.00 0.00 0.00 0.00 0.00 0.00 0.00 0.00 0.00 0.00 0.00 0.00 0.00 0.00 0.00 0.00 0.00 0.00 0.00 0.00 0.01 0.01 0.00 0.00 0.00 0.00 0.00 0.00 0.01 0.01 0.01 0.02 0.02 0.02 0.02 0.03 0.02 0.03 0.02 0.02 0.02
0.00 0.00 0.00 0.00 0.00 0.00 0.00 0.00 0.00 0.00 0.00 0.00 0.00 0.00 0.00 0.00 0.00 0.00 0.00 0.00 0.00 0.00 0.01 0.01 0.01 0.01 0.00 0.01 0.00 0.01 0.01 0.01 0.01 0.01 0.01 0.02 0.02 0.02 0.03 0.03 0.03 0.02 0.02 0.02
0.00 0.00 0.00 0.00 0.00 0.00 0.00 0.00 0.00 0.00 0.00 0.00 0.00 0.00 0.00 0.00 0.00 0.00 0.00 0.01 0.01 0.00 0.01 0.01 0.01 0.01 0.01 0.01 0.01 0.02 0.02 0.02 0.01 0.01 0.02 0.03 0.04 0.06 0.05 0.03 0.03 0.03 0.03 0.02
0.00 0.00 0.00 0.00 0.00 0.00 0.00 0.00 0.00 0.00 0.00 0.00 0.00 0.00 0.00 0.00 0.00 0.00 0.01 0.01 0.01 0.01 0.01 0.01 0.01 0.01 0.01 0.01 0.01 0.01 0.01 0.01 0.01 0.02 0.03 0.03 0.02 0.03 0.05 0.04 0.04 0.03 0.03 0.03
0.00 0.00 0.00 0.00 0.00 0.00 0.00 0.00 0.00 0.00 0.00 0.00 0.00 0.00 0.00 0.00 0.00 0.00 0.00 0.01 0.01 0.01 0.01 0.01 0.02 0.02 0.02 0.02 0.02 0.02 0.03 0.03 0.02 0.02 0.03 0.03 0.05 0.07 0.07 0.04 0.03 0.03 0.04 0.03
0.00 0.00 0.00 0.00 0.00 0.00 0.00 0.00 0.00 0.00 0.00 0.00 0.00 0.00 0.00 0.00 0.00 0.00 0.00 0.00 0.00 0.00 0.01 0.01 0.01 0.02 0.02 0.02 0.03 0.02 0.04 0.04 0.02 0.02 0.02 0.03 0.03 0.02 0.02 0.02 0.03 0.04 0.04 0.03
0.00 0.00 0.00 0.00 0.00 0.00 0.00 0.00 0.00 0.00 0.00 0.00 0.00 0.00 0.00 0.00 0.00 0.00 0.00 0.00 0.00 0.01 0.01 0.01 0.01 0.02 0.03 0.02 0.02 0.01 0.02 0.01 0.01 0.02 0.02 0.02 0.03 0.03 0.03 0.03 0.03 0.02 0.02 0.02
0.00 0.00 0.00 0.00 0.00 0.00 0.00 0.00 0.00 0.00 0.00 0.00 0.00 0.00 0.00 0.00 0.00 0.00 0.00 0.00 0.01 0.01 0.01 0.01 0.01 0.01 0.01 0.02 0.02 0.01 0.01 0.01 0.01 0.02 0.02 0.02 0.03 0.02 0.02 0.02 0.02 0.02 0.02 0.02
0.00 0.00 0.00 0.00 0.00 0.00 0.00 0.00 0.00 0.00 0.00 0.00 0.00 0.00 0.01 0.00 0.01 0.01 0.00 0.01 0.01 0.01 0.01 0.01 0.00 0.01 0.01 0.02 0.02 0.02 0.01 0.02 0.03 0.03 0.02 0.03 0.04 0.03 0.02 0.02 0.02 0.02 0.02 0.03
0.00 0.00 0.00 0.00 0.00 0.00 0.00 0.00 0.00 0.00 0.00 0.00 0.00 0.00 0.00 0.00 0.01 0.01 0.01 0.01 0.02 0.03 0.02 0.01 0.01 0.02 0.02 0.02 0.02 0.03 0.02 0.02 0.03 0.02 0.03 0.03 0.03 0.03 0.02 0.02 0.02 0.01 0.01 0.02
0.00 0.00 0.00 0.00 0.00 0.00 0.00 0.00 0.00 0.00 0.00 0.00 0.00 0.00 0.00 0.00 0.00 0.01 0.01 0.02 0.02 0.03 0.02 0.02 0.03 0.05 0.06 0.05 0.04 0.03 0.03 0.04 0.03 0.03 0.03 0.03 0.02 0.03 0.03 0.02 0.01 0.01 0.01 0.02
0.00 0.00 0.00 0.00 0.00 0.00 0.00 0.00 0.00 0.00 0.00 0.00 0.00 0.00 0.00 0.01 0.00 0.01 0.01 0.02 0.03 0.03 0.02 0.03 0.05 0.06 0.05 0.05 0.05 0.04 0.04 0.03 0.03 0.03 0.04 0.04 0.03 0.02 0.02 0.02 0.02 0.02 0.01 0.02
0.00 0.00 0.00 0.00 0.00 0.00 0.00 0.00 0.00 0.00 0.00 0.00 0.00 0.00 0.00 0.01 0.00 0.01 0.01 0.02 0.03 0.04 0.03 0.04 0.04 0.03 0.02 0.02 0.03 0.02 0.02 0.03 0.04 0.03 0.02 0.02 0.02 0.02 0.02 0.03 0.02 0.01 0.01 0.01
0.00 0.00 0.00 0.01 0.00 0.00 0.00 0.00 0.00 0.00 0.00 0.01 0.01 0.00 0.01 0.01 0.01 0.01 0.01 0.01 0.02 0.05 0.06 0.05 0.04 0.03 0.02 0.02 0.01 0.01 0.01 0.03 0.03 0.03 0.02 0.02 0.01 0.02 0.03 0.03 0.02 0.02 0.02 0.03
0.00 0.00 0.00 0.01 0.01 0.00 0.00 0.00 0.00 0.00 0.00 0.01 0.01 0.01 0.01 0.01 0.01 0.01 0.01 0.01 0.01 0.03 0.05 0.06 0.04 0.03 0.02 0.01 0.01 0.01 0.01 0.02 0.02 0.01 0.01 0.01 0.01 0.02 0.03 0.03 0.03 0.03 0.03 0.05
MSLP
1010.57 1011.01 1011.34 1011.56 1011.66 1011.67 1011.61 1011.50 1011.36 1011.20 1011.02 1010.81 1010.55 1010.27 1009.96 1009.65 1009.37 1009.16 1009.04 1009.04 1009.17 1009.42 1009.77 1010.22 1010.71 1011.24 1011.77 1012.29 1012.78 1013.24 1013.64 1013.99 1014.28 1014.51 1014.68 1014.80 1014.88 1014.92 1014.94 1014.95 1014.96 1014.98 1015.01 1015.07
1011.30 1011.63 1011.85 1011.96 1011.99 1011.95 1011.88 1011.79 1011.70 1011.59 1011.45 1011.25 1010.97 1010.61 1010.19 1009.74 1009.30 1008.94 1008.70 1008.60 1008.66 1008.89 1009.26 1009.72 1010.26 1010.82 1011.37 1011.91 1012.41 1012.87 1013.29 1013.66 1013.99 1014.27 1014.49 1014.66 1014.76 1014.82 1014.82 1014.80 1014.77 1014.74 1014.74 1014.78
1011.88 1012.07 1012.17 1012.18 1012.14 1012.08 1012.03 1012.01 1012.00 1011.98 1011.90 1011.72 1011.42 1010.99 1010.45 1009.85 1009.26 1008.74 1008.36 1008.17 1008.17 1008.38 1008.75 1009.23 1009.79 1010.38 1010.95 1011.49 1011.98 1012.44 1012.87 1013.26 1013.61 1013.93 1014.20 1014.41 1014.55 1014.61 1014.62 1014.58 1014.53 1014.47 1014.46 1014.51
1012.25 1012.31 1012.29 1012.22 1012.14 1012.09 1012.11 1012.19 1012.29 1012.38 1012.38 1012.24 1011.92 1011.42 1010.77 1010.02 1009.27 1008.60 1008.09 1007.79 1007.74 1007.91 1008.28 1008.78 1009.36 1009.96 1010.53 1011.06 1011.54 1011.99 1012.41 1012.80 1013.18 1013.53 1013.84 1014.08 1014.25 1014.34 1014.35 1014.31 1014.25 1014.19 1014.17 1014.22
1012.44 1012.38 1012.26 1012.13 1012.04 1012.05 1012.16 1012.36 1012.60 1012.81 1012.90 1012.80 1012.48 1011.92 1011.16 1010.27 1009.36 1008.55 1007.91 1007.52 1007.40 1007.54 1007.90 1008.41 1008.99 1009.59 1010.16 1010.67 1011.14 1011.56 1011.95 1012.34 1012.73 1013.10 1013.43 1013.71 1013.91 1014.02 1014.04 1014.00 1013.93 1013.87 1013.86 1013.91
1012.49 1012.33 1012.14 1011.98 1011.91 1011.98 1012.20 1012.53 1012.91 1013.24 1013.43 1013.38 1013.05 1012.44 1011.59 1010.59 1009.55 1008.61 1007.86 1007.39 1007.22 1007.33 1007.67 1008.17 1008.76 1009.34 1009.89 1010.38 1010.81 1011.20 1011.57 1011.95 1012.33 1012.70 1013.05 1013.35 1013.56 1013.68 1013.71 1013.66 1013.59 1013.52 1013.49 1013.54
1012.45 1012.22 1011.99 1011.82 1011.79 1011.93 1012.26 1012.71 1013.21 1013.65 1013.91 1013.91 1013.59 1012.95 1012.03 1010.95 1009.83 1008.79 1007.97 1007.44 1007.22 1007.31 1007.64 1008.14 1008.70 1009.27 1009.79 1010.25 1010.64 1010.99 1011.33 1011.67 1012.03 1012.40 1012.75 1013.04 1013.26 1013.37 1013.39 1013.32 1013.22 1013.12 1013.07 1013.10
1012.39 1012.12 1011.86 1011.71 1011.71 1011.91 1012.31 1012.85 1013.44 1013.96 1014.28 1014.32 1014.01 1013.36 1012.43 1011.31 1010.15 1009.08 1008.23 1007.67 1007.44 1007.52 1007.84 1008.32 1008.87 1009.42 1009.91 1010.32 1010.66 1010.97 1011.26 1011.57 1011.90 1012.24 1012.57 1012.85 1013.04 1013.13 1013.12 1013.02 1012.87 1012.73 1012.63 1012.61
1012.34 1012.06 1011.80 1011.65 1011.67 1011.91 1012.34 1012.92 1013.55 1014.11 1014.47 1014.53 1014.25 1013.62 1012.70 1011.60 1010.46 1009.42 1008.59 1008.06 1007.85 1007.93 1008.26 1008.73 1009.27 1009.79 1010.24 1010.61 1010.91 1011.17 1011.41 1011.68 1011.97 1012.27 1012.56 1012.80 1012.96 1013.01 1012.95 1012.80 1012.59 1012.39 1012.22 1012.15
1012.33 1012.05 1011.80 1011.65 1011.67 1011.91 1012.33 1012.90 1013.52 1014.07 1014.42 1014.50 1014.24 1013.66 1012.80 1011.78 1010.72 1009.76 1009.01 1008.55 1008.39 1008.51 1008.85 1009.33 1009.85 1010.35 1010.77 1011.11 1011.37 1011.58 1011.78 1011.99 1012.23 1012.49 1012.74 1012.94 1013.05 1013.05 1012.93 1012.72 1012.45 1012.18 1011.94 1011.79
1012.33 1012.07 1011.84 1011.69 1011.70 1011.89 1012.27 1012.78 1013.33 1013.83 1014.15 1014.22 1013.99 1013.47 1012.70 1011.79 1010.86 1010.03 1009.40 1009.04 1008.97 1009.15 1009.53 1010.02 1010.55 1011.03 1011.43 1011.74 1011.97 1012.15 1012.31 1012.48 1012.68 1012.89 1013.09 1013.24 1013.30 1013.26 1013.10 1012.84 1012.52 1012.18 1011.89 1011.68
1012.33 1012.11 1011.90 1011.76 1011.73 1011.88 1012.17 1012.58 1013.04 1013.44 1013.70 1013.74 1013.53 1013.07 1012.41 1011.63 1010.85 1010.18 1009.70 1009.46 1009.48 1009.74 1010.17 1010.69 1011.23 1011.72 1012.12 1012.42 1012.64 1012.79 1012.93 1013.07 1013.23 1013.40 1013.56 1013.67 1013.70 1013.63 1013.44 1013.16 1012.82 1012.46 1012.13 1011.88
1012.30 1012.15 1011.97 1011.84 1011.80 1011.88 1012.08 1012.38 1012.71 1012.99 1013.17 1013.16 1012.95 1012.54 1011.97 1011.33 1010.70 1010.17 1009.83 1009.72 1009.85 1010.18 1010.66 1011.23 1011.79 1012.30 1012.72 1013.04 1013.27 1013.43 1013.56 1013.68 1013.82 1013.96 1014.09 1014.17 1014.19 1014.11 1013.94 1013.67 1013.34 1012.99 1012.67 1012.42
1012.26 1012.18 1012.06 1011.96 1011.91 1011.93 1012.04 1012.22 1012.42 1012.59 1012.66 1012.59 1012.35 1011.97 1011.47 1010.92 1010.41 1010.02 1009.80 1009.79 1010.00 1010.40 1010.94 1011.55 1012.16 1012.71 1013.17 1013.53 1013.79 1013.97 1014.12 1014.25 1014.37 1014.50 1014.61 1014.70 1014.72 1014.66 1014.53 1014.31 1014.04 1013.75 1013.48 1013.26
1012.20 1012.21 1012.17 1012.11 1012.07 1012.06 1012.10 1012.18 1012.26 1012.30 1012.26 1012.11 1011.83 1011.44 1010.97 1010.49 1010.05 1009.74 1009.60 1009.67 1009.94 1010.39 1010.97 1011.62 1012.28 1012.89 1013.41 1013.83 1014.15 1014.39 1014.57 1014.71 1014.85 1014.97 1015.09 1015.17 1015.22 1015.21 1015.14 1015.01 1014.83 1014.64 1014.45 1014.29
1012.14 1012.24 1012.28 1012.29 1012.28 1012.27 1012.26 1012.26 1012.24 1012.17 1012.03 1011.79 1011.45 1011.03 1010.55 1010.09 1009.68 1009.41 1009.30 1009.40 1009.69 1010.17 1010.78 1011.48 1012.19 1012.86 1013.46 1013.96 1014.36 1014.67 1014.90 1015.08 1015.22 1015.36 1015.48 1015.58 1015.66 1015.70 1015.71 1015.67 1015.62 1015.54 1015.46 1015.41
1012.10 1012.28 1012.40 1012.48 1012.51 1012.52 1012.49 1012.45 1012.35 1012.20 1011.97 1011.65 1011.24 1010.77 1010.27 1009.78 1009.36 1009.08 1008.97 1009.06 1009.35 1009.83 1010.46 1011.18 1011.95 1012.70 1013.38 1013.97 1014.46 1014.84 1015.14 1015.36 1015.53 1015.67 1015.79 1015.90 1016.01 1016.10 1016.18 1016.26 1016.31 1016.36 1016.40 1016.45
1012.07 1012.31 1012.50 1012.63 1012.71 1012.75 1012.73 1012.66 1012.53 1012.32 1012.03 1011.66 1011.19 1010.67 1010.12 1009.60 1009.16 1008.84 1008.69 1008.75 1009.02 1009.48 1010.11 1010.86 1011.67 1012.48 1013.25 1013.94 1014.52 1014.99 1015.34 1015.60 1015.80 1015.94 1016.06 1016.17 1016.29 1016.42 1016.56 1016.71 1016.87 1017.03 1017.18 1017.32
1012.04 1012.30 1012.52 1012.70 1012.82 1012.88 1012.89 1012.82 1012.68 1012.46 1012.14 1011.73 1011.24 1010.70 1010.12 1009.57 1009.09 1008.74 1008.55 1008.57 1008.80 1009.23 1009.85 1010.61 1011.46 1012.33 1013.17 1013.94 1014.61 1015.15 1015.57 1015.87 1016.08 1016.22 1016.33 1016.43 1016.54 1016.68 1016.85 1017.05 1017.28 1017.52 1017.76 1017.99
1011.99 1012.23 1012.45 1012.64 1012.78 1012.86 1012.89 1012.85 1012.72 1012.51 1012.21 1011.81 1011.33 1010.79 1010.22 1009.67 1009.18 1008.80 1008.59 1008.57 1008.76 1009.17 1009.77 1010.53 1011.39 1012.29 1013.19 1014.03 1014.77 1015.38 1015.84 1016.18 1016.40 1016.54 1016.63 1016.71 1016.80 1016.92 1017.10 1017.32 1017.59 1017.88 1018.18 1018.47
1011.91 1012.09 1012.27 1012.43 1012.57 1012.66 1012.71 1012.70 1012.61 1012.43 1012.17 1011.83 1011.40 1010.91 1010.38 1009.86 1009.40 1009.04 1008.82 1008.78 1008.95 1009.33 1009.90 1010.64 1011.49 1012.42 1013.34 1014.22 1015.01 1015.66 1016.17 1016.53 1016.77 1016.90 1016.98 1017.03 1017.09 1017.19 1017.35 1017.58 1017.85 1018.17 1018.51 1018.83
1011.80 1011.89 1012.00 1012.11 1012.22 1012.31 1012.37 1012.38 1012.33 1012.22 1012.02 1011.75 1011.41 1011.00 1010.56 1010.12 1009.72 1009.40 1009.21 1009.18 1009.33 1009.68 1010.22 1010.93 1011.77 1012.67 1013.60 1014.49 1015.29 1015.97 1016.51 1016.89 1017.14 1017.28 1017.35 1017.39 1017.43 1017.51 1017.65 1017.86 1018.14 1018.46 1018.81 1019.17
1011.66 1011.66 1011.68 1011.74 1011.80 1011.87 1011.92 1011.95 1011.95 1011.89 1011.78 1011.60 1011.35 1011.06 1010.73 1010.40 1010.09 1009.84 1009.70 1009.70 1009.85 1010.18 1010.69 1011.35 1012.14 1013.00 1013.90 1014.76 1015.56 1016.25 1016.79 1017.20 1017.47 1017.63 1017.71 1017.75 1017.79 1017.86 1017.99 1018.20 1018.47 1018.80 1019.16 1019.54
1011.54 1011.45 1011.40 1011.39 1011.40 1011.43 1011.48 1011.52 1011.54 1011.53 1011.48 1011.39 1011.26 1011.08 1010.87 1010.66 1010.46 1010.30 1010.23 1010.26 1010.43 1010.74 1011.21 1011.81 1012.53 1013.33 1014.16 1014.98 1015.75 1016.42 1016.97 1017.40 1017.70 1017.89 1018.00 1018.07 1018.12 1018.22 1018.36 1018.57 1018.85 1019.19 1019.58 1019.98
1011.47 1011.32 1011.21 1011.14 1011.11 1011.11 1011.14 1011.17 1011.20 1011.22 1011.22 1011.19 1011.14 1011.06 1010.97 1010.86 1010.77 1010.71 1010.71 1010.79 1010.97 1011.27 1011.69 1012.23 1012.87 1013.58 1014.33 1015.09 1015.80 1016.45 1017.00 1017.44 1017.77 1018.00 1018.16 1018.28 1018.40 1018.53 1018.71 1018.95 1019.26 1019.62 1020.04 1020.47
1011.48 1011.29 1011.15 1011.06 1011.00 1010.97 1010.96 1010.97 1010.99 1011.01 1011.03 1011.03 1011.03 1011.03 1011.01 1011.00 1011.00 1011.03 1011.09 1011.21 1011.41 1011.69 1012.07 1012.54 1013.09 1013.71 1014.37 1015.04 1015.70 1016.31 1016.84 1017.30 1017.66 1017.95 1018.18 1018.36 1018.54 1018.74 1018.97 1019.26 1019.61 1020.02 1020.47 1020.95
Thickness
5816 5814 5812 5820 5826 5828 5826 5822 5819 5823 5831 5828 5825 5827 5832 5835 5832 5829 5827 5825 5822 5819 5821 5818 5813 5809 5803 5798 5792 5787 5783 5779 5774 5771 5768 5765 5763 5762 5761 5760 5756 5754 5753 5751
5801 5803 5816 5821 5820 5818 5817 5813 5815 5818 5825 5824 5822 5825 5833 5835 5832 5833 5830 5827 5825 5822 5820 5817 5814 5809 5804 5799 5794 5789 5785 5781 5777 5774 5770 5768 5766 5765 5764 5762 5758 5755 5754 5752
5797 5806 5811 5808 5805 5806 5810 5811 5812 5810 5816 5823 5818 5816 5824 5832 5835 5834 5833 5832 5831 5827 5822 5818 5814 5810 5807 5802 5798 5794 5789 5784 5780 5777 5774 5771 5767 5765 5764 5761 5760 5758 5756 5754
5795 5800 5799 5800 5801 5805 5800 5815 5814 5809 5805 5807 5811 5803 5819 5827 5825 5828 5830 5832 5832 5831 5828 5824 5818 5813 5809 5806 5803 5797 5791 5787 5783 5779 5776 5772 5767 5765 5765 5763 5763 5761 5758 5756
5786 5793 5792 5792 5801 5805 5807 5812 5810 5809 5805 5804 5807 5802 5817 5824 5818 5824 5830 5833 5833 5833 5831 5827 5823 5818 5814 5811 5805 5799 5794 5789 5786 5782 5778 5773 5771 5769 5769 5766 5763 5760 5760 5758
5789 5796 5798 5800 5806 5806 5804 5802 5800 5803 5804 5785 5799 5796 5803 5820 5820 5826 5831 5833 5834 5834 5832 5829 5826 5822 5817 5813 5807 5802 5795 5790 5787 5783 5779 5774 5771 5769 5766 5764 5763 5762 5762 5760
5770 5782 5794 5801 5792 5795 5797 5788 5775 5771 5774 5782 5801 5794 5803 5822 5828 5828 5828 5831 5834 5834 5831 5827 5823 5820 5816 5811 5806 5802 5796 5790 5787 5783 5780 5777 5773 5770 5766 5764 5764 5763 5763 5762
5760 5764 5784 5793 5793 5788 5792 5794 5778 5768 5773 5786 5788 5788 5809 5824 5828 5830 5831 5832 5832 5831 5831 5827 5825 5821 5817 5812 5807 5802 5797 5792 5788 5784 5781 5778 5775 5773 5771 5768 5768 5766 5765 5765
5767 5768 5786 5793 5799 5797 5785 5791 5807 5791 5786 5780 5789 5794 5807 5818 5819 5822 5825 5826 5826 5828 5828 5826 5825 5822 5818 5813 5808 5803 5798 5792 5788 5785 5782 5779 5776 5774 5773 5770 5768 5768 5766 5766
5774 5763 5774 5783 5788 5789 5797 5797 5787 5780 5763 5764 5777 5784 5795 5803 5808 5815 5818 5820 5823 5825 5825 5824 5823 5820 5817 5814 5809 5805 5799 5793 5790 5786 5783 5781 5777 5775 5772 5771 5768 5767 5766 5765
5771 5760 5762 5770 5770 5776 5778 5781 5785 5784 5783 5771 5767 5784 5811 5808 5811 5812 5815 5818 5819 5820 5821 5821 5819 5817 5815 5813 5809 5803 5799 5794 5790 5787 5783 5780 5777 5775 5773 5770 5768 5767 5766 5764
5764 5763 5756 5765 5780 5788 5786 5784 5781 5768 5765 5774 5778 5787 5810 5810 5812 5812 5813 5814 5816 5817 5818 5817 5815 5813 5810 5808 5805 5801 5798 5794 5790 5787 5783 5780 5777 5775 5772 5770 5768 5767 5765 5763
5756 5750 5738 5743 5754 5767 5773 5780 5783 5782 5775 5771 5770 5781 5803 5805 5806 5808 5808 5809 5809 5810 5811 5811 5809 5806 5804 5803 5800 5798 5795 5792 5790 5786 5782 5779 5776 5773 5770 5769 5767 5765 5764 5762
5755 5747 5748 5747 5758 5768 5763 5768 5775 5774 5766 5767 5774 5783 5790 5795 5796 5799 5801 5803 5804 5803 5803 5803 5800 5800 5799 5798 5796 5794 5791 5790 5787 5783 5780 5777 5774 5771 5769 5767 5765 5763 5762 5760
5747 5740 5747 5758 5765 5770 5766 5766 5769 5769 5775 5773 5778 5781 5787 5792 5793 5795 5796 5797 5797 5796 5796 5795 5794 5793 5793 5792 5790 5789 5787 5785 5783 5779 5775 5773 5771 5768 5765 5763 5762 5760 5759 5757
5739 5736 5741 5741 5753 5757 5757 5763 5766 5768 5772 5774 5777 5778 5791 5791 5792 5790 5790 5791 5790 5789 5790 5790 5789 5787 5786 5785 5784 5783 5781 5780 5778 5774 5771 5769 5767 5765 5762 5760 5759 5756 5754 5752
5731 5730 5729 5732 5742 5742 5738 5754 5759 5763 5770 5772 5768 5776 5783 5780 5780 5781 5783 5785 5785 5785 5785 5784 5783 5781 5780 5780 5779 5778 5777 5776 5773 5770 5767 5765 5763 5760 5758 5757 5754 5750 5748 5747
5723 5724 5728 5731 5725 5712 5743 5763 5763 5760 5763 5771 5773 5775 5776 5776 5777 5779 5781 5781 5780 5780 5780 5779 5778 5775 5775 5775 5775 5774 5773 5770 5768 5765 5762 5760 5758 5755 5753 5751 5748 5745 5744 5742
5722 5719 5723 5723 5716 5722 5735 5748 5754 5750 5750 5763 5764 5766 5768 5771 5770 5769 5773 5775 5775 5775 5774 5773 5772 5771 5768 5767 5767 5767 5765 5763 5760 5758 5755 5754 5752 5750 5747 5745 5743 5741 5738 5736
5711 5716 5718 5715 5709 5709 5731 5747 5753 5749 5738 5756 5758 5757 5759 5762 5759 5760 5764 5766 5766 5767 5767 5766 5766 5764 5760 5759 5759 5758 5756 5753 5751 5750 5749 5749 5747 5744 5741 5739 5737 5735 5733 5732
5698 5701 5706 5708 5708 5721 5735 5742 5741 5725 5734 5750 5753 5752 5754 5754 5757 5757 5758 5757 5758 5757 5758 5759 5758 5755 5752 5751 5751 5748 5746 5744 5744 5744 5743 5742 5740 5738 5735 5733 5731 5729 5728 5726
5699 5700 5698 5704 5701 5709 5728 5732 5729 5730 5738 5743 5745 5747 5746 5747 5749 5749 5749 5748 5749 5748 5749 5750 5748 5745 5744 5744 5742 5739 5736 5736 5737 5737 5735 5733 5732 5731 5729 5726 5724 5723 5721 5719
5696 5700 5707 5705 5705 5711 5721 5723 5724 5729 5730 5733 5737 5739 5738 5738 5738 5739 5739 5739 5739 5740 5740 5741 5739 5737 5735 5735 5733 5730 5729 5729 5729 5728 5726 5725 5724 5722 5721 5719 5717 5716 5715 5714
5685 5690 5695 5695 5699 5704 5709 5713 5716 5720 5722 5726 5729 5731 5732 5730 5730 5729 5730 5730 5729 5730 5730 5731 5730 5727 5726 5726 5725 5724 5722 5721 5721 5719 5717 5715 5714 5713 5711 5710 5710 5709 5707 5706
5680 5682 5684 5685 5691 5696 5699 5703 5707 5710 5714 5717 5719 5722 5723 5722 5721 5721 5721 5720 5720 5721 5721 5721 5720 5718 5718 5718 5717 5716 5714 5713 5712 5710 5709 5708 5707 5705 5702 5700 5697 5697 5694 5693
5673 5675 5676 5680 5686 5689 5690 5696 5699 5699 5701 5705 5708 5709 5712 5713 5711 5712 5712 5713 5713 5712 5712 5711 5711 5711 5710 5709 5708 5707 5706 5705 5704 5702 5701 5701 5700 5697 5695 5692 5687 5680 5681 5679